Location: Unspecified
(41.9000°N, 12.4830°E)
Time: 09:13:29
(UTC+02:00)

ISS - Pass Details

Date: 21 September 2017
Orbit: 401 x 407 km, 51.6° (Epoch: 23 September)

Event Time Altitude Azimuth Distance (km) Brightness Sun altitude
Exits shadow 04:59:39 29° 136° (SE) 768 -2.3 -22.0°
Drops below altitude 10° 05:01:26 10° 131° (SE) 1,461 -0.7 -21.7°
Sets 05:03:30 0° 130° (SE) 2,318 0.4 -21.3°
